(50191) = 2000 AQ193 = 2001 KT39

Discovered at Socorro on 2000-01-08 by LINEAR.

Orbit

Orbit type: Main Belt

Note: WebGL enabled browser required.

epoch2023-09-13.0
epoch JD2460200.5
perihelion date2022-11-18.87286
perihelion JD2459902.37286
argument of perihelion (°)22.52178
ascending node (°)185.75825
inclination (°)12.59351
eccentricity0.1180458
perihelion distance (AU)2.3625994
Tisserand w.r.t. Jupiter3.3
ΔV w.r.t. Earth (km/sec)10.4
semimajor axis (AU)2.6788233
mean anomaly (°)67.01766
mean daily motion (°/day)0.22479560
aphelion distance (AU)2.995
period (years)4.38
P-vector [x]-0.88156712
P-vector [y]-0.45949366
P-vector [z]-0.10818960
Q-vector [x]0.47155156
Q-vector [y]-0.86780079
Q-vector [z]-0.15671924
absolute magnitude14.64
phase slope0.15
uncertainty0
referenceMPEC 2024-A48
observations used1806
oppositions20
arc length (days)9073
first opposition used1998
last opposition used2023
residual rms (arc-secs)0.67
perturbers coarse indicatorM-v
perturbers precise indicator003Ek
first observation date used1998-10-11.0
last observation date used2023-08-13.0
computer nameMPCLINUX
JD of orbit computation2456937.170847
perihelion JD uncertainty (days)5.8708E-05
argument of perihelion uncertainty (°)2.1292E-05
ascending node uncertainty (°)1.5583E-05
inclination uncertainty (°)4.4057E-06
eccentricity uncertainty 4.1982E-08
perihelion distance uncertainty (AU)1.1034E-07
Minimum Orbit Intersection Distances (in AU)
for orbit epoch: 2460200.5, reference: E2024-A48
Mercury1.9255
Venus1.64121
Earth1.36299
Mars0.73703
Jupiter1.96479
Saturn6.21216
Uranus16.0075
Neptune26.8474

Observations

1836 total observations over interval: 1998 10 11.32802 – 2023 08 13.835463
These data are available for download (format description).

Date (UT) J2000 RA J2000 Dec Magn Location Ref
1998 10 11.32802 02 14 19.54 +05 53 58.7 18.6 R 699 – Lowell Observatory-LONEOS MPS 84890
1998 10 11.34789 02 14 18.70 +05 53 48.7   699 – Lowell Observatory-LONEOS MPS 84890
1998 10 11.36777 02 14 17.85 +05 53 38.2   699 – Lowell Observatory-LONEOS MPS 84890
1998 10 20.33018 02 07 27.24 +04 41 58.2 18.2 R 699 – Lowell Observatory-LONEOS MPS 57026
1998 10 20.35003 02 07 26.22 +04 41 48.9   699 – Lowell Observatory-LONEOS MPS 57026
1998 10 20.36988 02 07 25.25 +04 41 39.6   699 – Lowell Observatory-LONEOS MPS 57026
1998 11 11.17893 01 50 35.00 +02 09 02.0 19.1   704 – Lincoln Laboratory ETS, New Mexico MPS 31645
1998 11 11.20081 01 50 34.09 +02 08 53.1 19.6   704 – Lincoln Laboratory ETS, New Mexico MPS 31645
1998 11 11.22282 01 50 33.18 +02 08 47.6 20.2   704 – Lincoln Laboratory ETS, New Mexico MPS 31645
1998 11 11.24459 01 50 32.12 +02 08 39.9 20.0   704 – Lincoln Laboratory ETS, New Mexico MPS 31645
2000 01 08.30682 08 09 48.69 +01 24 20.3 18.5   704 – Lincoln Laboratory ETS, New Mexico MPS 9442
2000 01 08.32191 08 09 47.90 +01 24 21.1 18.5   704 – Lincoln Laboratory ETS, New Mexico MPS 9442
2000 01 08.33720 08 09 47.11 +01 24 22.6 18.9   704 – Lincoln Laboratory ETS, New Mexico MPS 9442
2000 01 08.35229 08 09 46.37 +01 24 24.6 18.3   704 – Lincoln Laboratory ETS, New Mexico MPS 9442
2000 01 11.30675 08 07 19.01 +01 30 29.7 18.5   704 – Lincoln Laboratory ETS, New Mexico MPS 9442
2000 01 11.32167 08 07 18.19 +01 30 31.3 18.6   704 – Lincoln Laboratory ETS, New Mexico MPS 9442
2000 01 11.33654 08 07 17.34 +01 30 34.0 19.6   704 – Lincoln Laboratory ETS, New Mexico MPS 9442
2000 01 11.35142 08 07 16.68 +01 30 35.5 19.4   704 – Lincoln Laboratory ETS, New Mexico MPS 9442
2000 01 11.36630 08 07 15.88 +01 30 38.1 19.1   704 – Lincoln Laboratory ETS, New Mexico MPS 9442
2000 01 12.20171 08 06 33.35 +01 32 42.1 18.3   704 – Lincoln Laboratory ETS, New Mexico MPS 9442
2000 01 12.24602 08 06 31.01 +01 32 48.6 18.0   704 – Lincoln Laboratory ETS, New Mexico MPS 9442
2000 01 12.33398 08 06 26.36 +01 33 04.1 19.3   704 – Lincoln Laboratory ETS, New Mexico MPS 9442
2000 01 12.37768 08 06 23.95 +01 33 10.3 19.1   704 – Lincoln Laboratory ETS, New Mexico MPS 9442
2000 02 06.24606 07 44 54.25 +03 36 06.8 19.0   704 – Lincoln Laboratory ETS, New Mexico MPS 10222
2000 02 06.26100 07 44 53.57 +03 36 14.2 18.7   704 – Lincoln Laboratory ETS, New Mexico MPS 10222
2000 02 06.27590 07 44 52.85 +03 36 20.7 18.9   704 – Lincoln Laboratory ETS, New Mexico MPS 10222
2000 02 06.29083 07 44 52.28 +03 36 26.6 18.8   704 – Lincoln Laboratory ETS, New Mexico MPS 10222
2000 02 06.30614 07 44 51.49 +03 36 32.7 19.0   704 – Lincoln Laboratory ETS, New Mexico MPS 10222
2000 02 08.22759 07 43 26.17 +03 49 50.8 18.5   704 – Lincoln Laboratory ETS, New Mexico MPS 10222
2000 02 08.24451 07 43 25.37 +03 49 57.7 18.5   704 – Lincoln Laboratory ETS, New Mexico MPS 10222
2000 02 08.26153 07 43 24.62 +03 50 05.4 18.9   704 – Lincoln Laboratory ETS, New Mexico MPS 10222
2000 02 08.27855 07 43 23.86 +03 50 12.5 18.4   704 – Lincoln Laboratory ETS, New Mexico MPS 10222
2000 02 08.29568 07 43 23.03 +03 50 19.6 18.1   704 – Lincoln Laboratory ETS, New Mexico MPS 10222
2000 03 06.17348 07 32 41.08 +07 11 32.7 18.1   704 – Lincoln Laboratory ETS, New Mexico MPS 10956
2000 03 06.18675 07 32 41.07 +07 11 38.9 18.8   704 – Lincoln Laboratory ETS, New Mexico MPS 10956
2000 03 06.20001 07 32 41.03 +07 11 44.9 18.6   704 – Lincoln Laboratory ETS, New Mexico MPS 10956
2000 03 06.21327 07 32 40.97 +07 11 50.8 19.3   704 – Lincoln Laboratory ETS, New Mexico MPS 10956
2000 03 06.22651 07 32 40.97 +07 11 56.6 19.0   704 – Lincoln Laboratory ETS, New Mexico MPS 10956
2001 05 22.33847 17 22 32.09 -03 55 59.1 18.5   704 – Lincoln Laboratory ETS, New Mexico MPS 31370
2001 05 22.34892 17 22 31.63 -03 55 55.4 18.9   704 – Lincoln Laboratory ETS, New Mexico MPS 31370
2001 05 22.35889 17 22 31.15 -03 55 51.7 18.7   704 – Lincoln Laboratory ETS, New Mexico MPS 31370
2001 05 22.36926 17 22 30.67 -03 55 48.1 18.9   704 – Lincoln Laboratory ETS, New Mexico MPS 31370
2001 05 22.37931 17 22 30.27 -03 55 44.6 19.1   704 – Lincoln Laboratory ETS, New Mexico MPS 31370
2001 05 25.32012 17 20 19.97 -03 39 03.7 18.3   704 – Lincoln Laboratory ETS, New Mexico MPS 31370
2001 05 25.33236 17 20 19.37 -03 38 59.5 18.1   704 – Lincoln Laboratory ETS, New Mexico MPS 31370
2001 05 25.34425 17 20 18.80 -03 38 55.9 18.6   704 – Lincoln Laboratory ETS, New Mexico MPS 31370
2001 05 25.35508 17 20 18.24 -03 38 52.0 18.5   704 – Lincoln Laboratory ETS, New Mexico MPS 31370
2001 05 25.36647 17 20 17.70 -03 38 49.8 19.1   704 – Lincoln Laboratory ETS, New Mexico MPS 31370
2001 05 29.32773 17 17 10.90 -03 18 43.3 18.1   704 – Lincoln Laboratory ETS, New Mexico MPS 31370
2001 05 29.33915 17 17 10.28 -03 18 40.4 18.0   704 – Lincoln Laboratory ETS, New Mexico MPS 31370
2001 05 29.35031 17 17 09.74 -03 18 37.5 17.9   704 – Lincoln Laboratory ETS, New Mexico MPS 31370
2001 05 29.36125 17 17 09.22 -03 18 34.3 17.8   704 – Lincoln Laboratory ETS, New Mexico MPS 31370
2001 05 29.37205 17 17 08.64 -03 18 31.1 18.1   704 – Lincoln Laboratory ETS, New Mexico MPS 31370
2001 06 21.24899 16 58 13.56 -02 25 26.0 18.2   704 – Lincoln Laboratory ETS, New Mexico MPS 31645
2001 06 21.26165 16 58 13.02 -02 25 27.1 17.9   704 – Lincoln Laboratory ETS, New Mexico MPS 31645
2001 06 21.27438 16 58 12.40 -02 25 26.8 18.0   704 – Lincoln Laboratory ETS, New Mexico MPS 31645
2001 06 21.30961 16 58 10.70 -02 25 27.3 18.5   704 – Lincoln Laboratory ETS, New Mexico MPS 31645
2001 06 21.33485 16 58 09.50 -02 25 27.4 18.3   704 – Lincoln Laboratory ETS, New Mexico MPS 31645
2001 08 13.25030 16 49 45.40 -06 12 46.4 20.8   608 – Haleakala-AMOS MPS 32771
2001 08 13.26137 16 49 45.73 -06 12 50.4 20.9   608 – Haleakala-AMOS MPS 32771
2001 08 13.27262 16 49 46.06 -06 12 55.0 20.7   608 – Haleakala-AMOS MPS 32771
2002 09 06.26595 00 12 06.98 +04 24 05.0 19.0   704 – Lincoln Laboratory ETS, New Mexico MPS 60943
2002 09 06.27986 00 12 06.43 +04 23 59.1 19.2   704 – Lincoln Laboratory ETS, New Mexico MPS 60943
2002 09 06.29371 00 12 05.85 +04 23 52.1 19.4   704 – Lincoln Laboratory ETS, New Mexico MPS 60943
2002 09 06.30755 00 12 05.33 +04 23 45.6 19.9   704 – Lincoln Laboratory ETS, New Mexico MPS 60943
2002 09 06.32158 00 12 04.70 +04 23 39.1 19.4   704 – Lincoln Laboratory ETS, New Mexico MPS 60943
2002 09 12.29505 00 07 59.18 +03 35 46.4 18.9 R 683 – Goodricke-Pigott Observatory, Tucson MPS 60943
2002 09 12.30499 00 07 58.74 +03 35 40.2 19.8 R 683 – Goodricke-Pigott Observatory, Tucson MPS 60943
2002 09 12.31963 00 07 58.07 +03 35 34.4 20.0 R 683 – Goodricke-Pigott Observatory, Tucson MPS 60943
2002 09 14.41088 00 06 27.29 +03 17 59.0 18.3   644 – Palomar Mountain/NEAT MPS 60943
2002 09 14.42139 00 06 26.82 +03 17 53.6 18.1   644 – Palomar Mountain/NEAT MPS 60943
2002 09 14.43200 00 06 26.33 +03 17 48.1 18.1   644 – Palomar Mountain/NEAT MPS 60943
2002 09 15.28392 00 05 49.07 +03 10 33.0 20.0 R 683 – Goodricke-Pigott Observatory, Tucson MPS 70969
2002 09 15.29512 00 05 48.52 +03 10 26.4 19.5 R 683 – Goodricke-Pigott Observatory, Tucson MPS 70969
2002 09 15.30850 00 05 47.95 +03 10 20.0 19.0 R 683 – Goodricke-Pigott Observatory, Tucson MPS 70969
2002 09 16.29208 00 05 04.66 +03 01 51.9 19.3 R 683 – Goodricke-Pigott Observatory, Tucson MPS 62828
2002 09 16.30628 00 05 03.82 +03 01 46.5 19.0 R 683 – Goodricke-Pigott Observatory, Tucson MPS 62828
2002 09 16.31358 00 05 03.63 +03 01 42.0 19.2   608 – Haleakala-AMOS MPS 62828
2002 09 16.32439 00 05 03.14 +03 01 36.0 19.2   608 – Haleakala-AMOS MPS 62828
2002 09 16.33581 00 05 02.61 +03 01 30.3 19.1   608 – Haleakala-AMOS MPS 62828
2002 09 27.28971 23 56 48.41 +01 24 53.5 18.3 R 699 – Lowell Observatory-LONEOS MPS 62828
2002 09 27.30020 23 56 47.96 +01 24 47.5   699 – Lowell Observatory-LONEOS MPS 62828
2002 09 27.31069 23 56 47.41 +01 24 41.2   699 – Lowell Observatory-LONEOS MPS 62828
2002 09 27.32120 23 56 46.92 +01 24 36.9   699 – Lowell Observatory-LONEOS MPS 62828
2002 09 29.28572 23 55 19.70 +01 07 12.3 19.4   608 – Haleakala-AMOS MPS 62828
2002 09 29.29638 23 55 19.22 +01 07 06.8 19.5   608 – Haleakala-AMOS MPS 62828
